User: anonymous   Login
Location: Unspecified
(0.0000°N, 0.0000°E)
Time: 13:13:16
(UTC+00:00)
Language:

Cosmos 2499 - Orbit

View from above orbital plane
View from above orbital plane
View from above satellite
View from above satellite

Ground track
Ground track

The orbit data is extracted from the following two-line orbital elements,

1 39765U 14028E   21015.90097072  .00000007  00000-0 -83299-5 0  9992
2 39765  82.4445 147.7902 0230285 326.1816  32.4776 12.82927957311495
Epoch (UTC): 15 January 2021 21:37:23
Eccentricity: 0.0230285
inclination: 82.4445°
perigee height: 1152 km
apogee height: 1507 km
right ascension of ascending node: 147.7902°
argument of perigee: 326.1816°
revolutions per day: 12.82927957
mean anomaly at epoch: 32.4776°
orbit number at epoch: 31149

The dashed part of the orbit path shows where the satellite is in the earth's shadow,  

DLR